Fort Knox, KY

3:41 AM EDT on May 26, 2017 (GMT -0400)
Godman Army Air Field

Weather History for KFTK - February, 2014

Change the Weather History Date:

Saturday, February 22, 2014

  Actual Average Record
Temperature  
Mean Temperature 46 °F -  
Max Temperature 62 °F 46 °F 68 °F (2017)
Min Temperature 31 °F 29 °F 15 °F (1999)
Degree Days  
Heating Degree Days 18    
Moisture  
Dew Point 23 °F    
Average Humidity 39    
Maximum Humidity 68    
Minimum Humidity 22    
Precipitation  
Precipitation 0.00 in - - ()
Sea Level Pressure  
Sea Level Pressure 30.02 in    
Wind  
Wind Speed 9 mph (SSW)    
Max Wind Speed 14 mph    
Max Gust Speed -    
Visibility 10 miles    
Events      
Averages and records for this station are not official NWS values.
T = Trace of Precipitation, MM = Missing Value Source: NWS Daily Summary

Daily Weather History Graph

Daily Weather History Graph

Search for Another Location

Airport or City:

Trip Planner

Search our weather history database for the weather conditions in past years. The results will help you decide how hot, cold, wet, or windy it might be!

Date:

Astronomy

Feb. 22, 2014 Rise Set
Actual Time 7:24 AM EST 6:30 PM EST
Civil Twilight 6:58 AM EST 6:56 PM EST
Nautical Twilight 6:27 AM EST 7:27 PM EST
Astronomical Twilight 5:57 AM EST 7:57 PM EST
Moon 1:17 AM EST (2/22) 11:43 AM EST (2/22)
Length of Visible Light 11h 58m
Length of Day
11h 05m
Waning Gibbous, 50% of the Moon is Illuminated
Feb 22
Waning Gibbous
Feb 22
Last Quarter
Mar 1
New
Mar 8
First Quarter
Mar 16
Full

Hourly Weather History & Observations

Time (EST) Temp. Windchill Dew Point Humidity Pressure Visibility Wind Dir Wind Speed Gust Speed Precip Events Conditions
12:58 AM 35.8 °F 28.8 °F 20.3 °F 53% 30.03 in 10.0 mi South 9.2 mph - N/A   Clear
1:58 AM 37.4 °F 29.8 °F 20.1 °F 50% 30.03 in 10.0 mi South 11.5 mph - N/A   Clear
2:58 AM 39.0 °F 31.4 °F 19.9 °F 46% 30.02 in 10.0 mi South 12.7 mph - N/A   Clear
3:58 AM 40.1 °F 33.6 °F 19.0 °F 43% 30.02 in 10.0 mi South 10.4 mph - N/A   Clear
4:58 AM 37.9 °F 31.5 °F 19.9 °F 48% 30.03 in 10.0 mi South 9.2 mph - N/A   Clear
5:58 AM 37.4 °F 33.8 °F 18.9 °F 47% 30.07 in 10.0 mi WSW 4.6 mph - N/A   Clear
6:58 AM 32.2 °F 28.9 °F 20.7 °F 63% 30.10 in 10.0 mi South 3.5 mph - N/A   Clear
7:58 AM 31.3 °F 26.6 °F 21.7 °F 68% 30.10 in 10.0 mi SSW 4.6 mph - N/A   Clear
8:58 AM 42.3 °F 38.6 °F 22.3 °F 45% 30.10 in 10.0 mi SSW 5.8 mph - N/A   Clear
9:58 AM 48.9 °F - 24.4 °F 38% 30.10 in 10.0 mi SW 10.4 mph - N/A   Clear
10:58 AM 53.6 °F - 26.6 °F 35% 30.10 in 10.0 mi WSW 9.2 mph - N/A   Clear
11:58 AM 57.0 °F - 27.0 °F 32% 30.09 in 10.0 mi SSW 11.5 mph - N/A   Clear
12:58 PM 59.7 °F - 26.4 °F 28% 30.05 in 10.0 mi South 12.7 mph - N/A   Clear
1:52 PM 60.8 °F - 24.8 °F 25% 30.00 in 10.0 mi SW 13.8 mph - N/A   Clear
1:58 PM 61.5 °F - 25.2 °F 25% 30.01 in 10.0 mi SSW 11.5 mph - N/A   Clear
2:58 PM 62.4 °F - 24.4 °F 24% 29.98 in 10.0 mi SW 12.7 mph - N/A   Clear
3:58 PM 62.8 °F - 24.8 °F 24% 29.96 in 10.0 mi WSW 10.4 mph - N/A   Clear
4:58 PM 61.9 °F - 22.6 °F 22% 29.95 in 10.0 mi South 13.8 mph - N/A   Mostly Cloudy
5:58 PM 60.6 °F - 22.5 °F 23% 29.94 in 10.0 mi South 8.1 mph - N/A   Mostly Cloudy
6:58 PM 54.1 °F - 22.1 °F 29% 29.94 in 10.0 mi South 6.9 mph - N/A   Scattered Clouds
7:58 PM 52.3 °F - 21.7 °F 30% 29.95 in 10.0 mi South 5.8 mph - N/A   Scattered Clouds
8:58 PM 48.2 °F - 23.2 °F 37% 29.95 in 10.0 mi SSW 1.2 mph - N/A   Mostly Cloudy
9:58 PM 47.3 °F - 20.7 °F 35% 29.95 in 10.0 mi SSW 1.2 mph - N/A   Mostly Cloudy
10:58 PM 43.5 °F - 27.3 °F 53% 29.96 in 10.0 mi West 2.3 mph - N/A   Overcast
11:58 PM 40.6 °F - 26.2 °F 57% 29.96 in 10.0 mi Calm Calm - N/A   Partly Cloudy